TimeCDT,TemperatureF,Dew PointF,Humidity,Sea Level PressureIn,VisibilityMPH,Wind Direction,Wind SpeedMPH,Gust SpeedMPH,PrecipitationIn,Events,Conditions,WindDirDegrees,DateUTC
12:15 AM,66.7,64.4,92,29.87,10.0,Calm,Calm,-,N/A,Rain,Light Rain,0,2013-06-25 05:15:00
12:35 AM,66.2,64.0,93,29.88,10.0,Calm,Calm,-,N/A,Rain,Light Rain,0,2013-06-25 05:35:00
12:55 AM,65.5,64.0,95,29.89,10.0,Calm,Calm,-,N/A,Rain,Light Rain,0,2013-06-25 05:55:00
1:15 AM,65.3,64.0,96,29.90,10.0,Calm,Calm,-,N/A,Rain,Light Rain,0,2013-06-25 06:15:00
1:35 AM,65.8,64.6,96,29.91,10.0,SW,3.5,-,N/A,Rain-Thunderstorm,Light Thunderstorms and Rain,230,2013-06-25 06:35:00
1:55 AM,66.2,64.8,95,29.89,7.0,SSE,3.5,-,N/A,Rain-Thunderstorm,Light Thunderstorms and Rain,160,2013-06-25 06:55:00
2:15 AM,66.0,64.8,96,29.90,7.0,Calm,Calm,-,N/A,Rain-Thunderstorm,Thunderstorms and Rain,0,2013-06-25 07:15:00
2:35 AM,66.2,64.8,95,29.87,7.0,South,4.6,-,0.01,Rain,Light Rain,180,2013-06-25 07:35:00
2:55 AM,65.8,64.6,96,29.88,5.0,South,6.9,-,0.04,Rain,Rain,170,2013-06-25 07:55:00
3:15 AM,65.5,64.2,96,29.87,10.0,South,5.8,-,0.02,Rain,Light Rain,190,2013-06-25 08:15:00
3:35 AM,65.5,64.2,96,29.87,7.0,Calm,Calm,-,0.03,Rain,Rain,0,2013-06-25 08:35:00
3:55 AM,65.5,64.4,96,29.90,10.0,WSW,5.8,-,0.03,Rain-Thunderstorm,Light Thunderstorms and Rain,240,2013-06-25 08:55:00
4:15 AM,65.3,63.9,95,29.87,10.0,Calm,Calm,-,N/A,Rain-Thunderstorm,Rain,0,2013-06-25 09:15:00
4:35 AM,65.1,63.9,96,29.88,10.0,North,5.8,-,N/A,Rain,Light Rain,10,2013-06-25 09:35:00
4:55 AM,64.6,63.5,96,29.86,10.0,SE,3.5,-,N/A,,Unknown,130,2013-06-25 09:55:00
5:15 AM,64.8,63.9,97,29.86,10.0,Calm,Calm,-,N/A,,Unknown,0,2013-06-25 10:15:00
5:35 AM,64.6,63.7,97,29.86,10.0,ENE,4.6,-,N/A,,Unknown,70,2013-06-25 10:35:00
5:55 AM,64.4,63.5,97,29.85,10.0,NNE,3.5,-,N/A,,Unknown,20,2013-06-25 10:55:00
6:15 AM,64.9,64.0,97,29.86,10.0,SE,3.5,-,N/A,,Unknown,130,2013-06-25 11:15:00
6:35 AM,65.8,64.4,95,29.84,10.0,East,3.5,-,N/A,,Unknown,100,2013-06-25 11:35:00
6:55 AM,66.2,64.6,94,29.88,10.0,SSE,6.9,-,N/A,,Unknown,160,2013-06-25 11:55:00
7:15 AM,67.1,64.4,91,29.89,10.0,South,6.9,-,N/A,,Unknown,170,2013-06-25 12:15:00
7:35 AM,67.1,64.4,91,29.90,10.0,South,6.9,-,N/A,,Unknown,180,2013-06-25 12:35:00
7:55 AM,67.1,64.4,91,29.90,10.0,South,4.6,-,N/A,,Unknown,190,2013-06-25 12:55:00
8:15 AM,67.3,64.4,90,29.90,10.0,SSW,3.5,-,N/A,,Unknown,200,2013-06-25 13:15:00
8:35 AM,67.1,64.6,92,29.89,10.0,SSE,4.6,-,N/A,,Unknown,160,2013-06-25 13:35:00
8:55 AM,67.6,64.8,90,29.87,10.0,ESE,3.5,-,N/A,,Unknown,110,2013-06-25 13:55:00
9:15 AM,69.1,65.5,88,29.84,10.0,ENE,5.8,-,N/A,,Unknown,60,2013-06-25 14:15:00
9:35 AM,69.8,65.3,86,29.82,10.0,ENE,6.9,-,N/A,,Unknown,70,2013-06-25 14:35:00
9:55 AM,70.7,65.1,82,29.82,10.0,ENE,5.8,-,N/A,,Unknown,60,2013-06-25 14:55:00
10:15 AM,73.0,65.8,78,29.83,10.0,ESE,5.8,-,N/A,,Unknown,110,2013-06-25 15:15:00
10:35 AM,72.1,65.3,79,29.86,10.0,South,9.2,-,N/A,,Unknown,190,2013-06-25 15:35:00
10:55 AM,71.4,64.8,79,29.87,10.0,South,9.2,-,N/A,,Unknown,180,2013-06-25 15:55:00
11:15 AM,72.3,64.4,76,29.86,10.0,Calm,Calm,-,N/A,,Unknown,0,2013-06-25 16:15:00
11:35 AM,72.9,64.9,76,29.87,10.0,SSE,4.6,-,N/A,,Unknown,160,2013-06-25 16:35:00
11:55 AM,72.7,64.8,76,29.86,10.0,South,3.5,-,N/A,,Unknown,190,2013-06-25 16:55:00
12:15 PM,73.9,65.3,74,29.87,10.0,SSE,3.5,-,N/A,,Unknown,150,2013-06-25 17:15:00
12:35 PM,74.8,65.5,73,29.86,10.0,South,4.6,-,N/A,,Unknown,170,2013-06-25 17:35:00
12:55 PM,75.6,65.8,72,29.87,10.0,Calm,Calm,-,N/A,,Unknown,0,2013-06-25 17:55:00
1:15 PM,77.4,66.0,68,29.86,10.0,South,6.9,-,N/A,,Unknown,170,2013-06-25 18:15:00
1:35 PM,77.4,66.4,69,29.85,10.0,South,3.5,-,N/A,,Unknown,170,2013-06-25 18:35:00
1:55 PM,79.2,66.6,65,29.83,10.0,SSW,3.5,-,N/A,,Unknown,200,2013-06-25 18:55:00
2:15 PM,80.1,66.7,64,29.83,10.0,ESE,4.6,-,N/A,,Unknown,120,2013-06-25 19:15:00
2:35 PM,79.7,66.7,64,29.83,10.0,Calm,Calm,-,N/A,,Unknown,0,2013-06-25 19:35:00
2:55 PM,80.2,67.1,64,29.83,10.0,ESE,3.5,-,N/A,,Unknown,120,2013-06-25 19:55:00
3:15 PM,81.5,67.8,63,29.83,10.0,East,3.5,-,N/A,,Unknown,90,2013-06-25 20:15:00
3:35 PM,80.8,68.0,65,29.83,10.0,East,3.5,-,N/A,,Unknown,90,2013-06-25 20:35:00
3:55 PM,82.0,67.1,60,29.82,10.0,ESE,3.5,-,N/A,,Unknown,110,2013-06-25 20:55:00
4:15 PM,81.5,67.3,62,29.82,10.0,Calm,Calm,-,N/A,,Unknown,0,2013-06-25 21:15:00
4:19 PM,82.4,68.0,62,29.82,10.0,SE,3.5,-,N/A,,Unknown,130,2013-06-25 21:19:00
4:35 PM,81.7,67.5,62,29.82,10.0,SE,4.6,-,N/A,,Unknown,130,2013-06-25 21:35:00
4:39 PM,82.4,68.0,62,29.82,10.0,SSE,3.5,-,N/A,,Unknown,150,2013-06-25 21:39:00
4:55 PM,82.2,68.0,62,29.82,10.0,Calm,Calm,-,N/A,,Unknown,0,2013-06-25 21:55:00
5:15 PM,82.4,67.6,61,29.81,10.0,Calm,Calm,-,N/A,,Unknown,0,2013-06-25 22:15:00
5:35 PM,83.1,68.5,61,29.79,10.0,East,5.8,-,N/A,,Unknown,90,2013-06-25 22:35:00
5:55 PM,82.4,68.4,62,29.79,10.0,Calm,Calm,-,N/A,,Unknown,0,2013-06-25 22:55:00
6:15 PM,83.3,68.5,61,29.79,10.0,SSE,6.9,-,N/A,,Unknown,160,2013-06-25 23:15:00
6:35 PM,82.0,68.5,63,29.79,10.0,SSE,5.8,-,N/A,,Unknown,160,2013-06-25 23:35:00
6:55 PM,81.1,68.9,66,29.79,10.0,SSE,4.6,-,N/A,,Unknown,160,2013-06-25 23:55:00
7:15 PM,80.4,69.8,70,29.79,10.0,SE,3.5,-,N/A,,Unknown,140,2013-06-26 00:15:00
7:35 PM,80.4,70.0,70,29.79,10.0,SSE,3.5,-,N/A,,Unknown,160,2013-06-26 00:35:00
7:55 PM,79.9,70.0,72,29.79,10.0,Calm,Calm,-,N/A,,Unknown,0,2013-06-26 00:55:00
8:15 PM,79.0,70.7,76,29.79,10.0,Calm,Calm,-,N/A,,Unknown,0,2013-06-26 01:15:00
8:35 PM,77.2,70.9,81,29.78,10.0,Calm,Calm,-,N/A,,Unknown,0,2013-06-26 01:35:00
8:55 PM,75.6,72.0,89,29.79,10.0,Calm,Calm,-,N/A,,Unknown,0,2013-06-26 01:55:00
9:15 PM,74.5,72.0,92,29.79,10.0,Calm,Calm,-,N/A,,Unknown,0,2013-06-26 02:15:00
9:35 PM,73.4,71.2,93,29.79,7.0,Calm,Calm,-,N/A,,Unknown,0,2013-06-26 02:35:00
9:55 PM,72.9,70.9,93,29.79,10.0,East,3.5,-,N/A,,Unknown,80,2013-06-26 02:55:00
10:15 PM,72.7,70.7,93,29.78,10.0,ESE,3.5,-,N/A,,Unknown,110,2013-06-26 03:15:00
10:35 PM,72.3,70.3,93,29.79,7.0,Calm,Calm,-,N/A,,Unknown,0,2013-06-26 03:35:00
10:55 PM,70.9,69.4,95,29.78,7.0,Calm,Calm,-,N/A,,Unknown,0,2013-06-26 03:55:00
11:15 PM,70.5,68.9,95,29.78,7.0,Calm,Calm,-,N/A,,Unknown,0,2013-06-26 04:15:00
11:35 PM,69.1,67.8,96,29.78,7.0,Calm,Calm,-,N/A,,Unknown,0,2013-06-26 04:35:00
11:55 PM,70.2,69.1,96,29.77,7.0,Calm,Calm,-,N/A,,Unknown,0,2013-06-26 04:55:00